period_start,C,m1,H,J0,J1,J2,J3,J4,J5,JA,JB,JC,JD,JJ,JK,JN,#
2018-05-30 00:04:46,0.01,0.03,0.00,23.37,27.25,30.38,13.87,46.64,1012.72,2027.05,3421.67,3080.99,3552.18,599.91,592.91,3.62,0000 0000 0000 0000 000000
2018-05-30 00:09:47,0.00,0.03,0.00,23.38,27.25,30.37,13.90,46.73,1012.72,2027.03,3421.26,3080.98,3552.03,599.86,592.85,3.67,0000 0000 0000 0000 000000
2018-05-30 00:14:48,-0.00,0.03,0.00,23.41,27.25,30.36,13.94,46.63,1012.74,2027.02,3421.05,3080.97,3552.00,600.26,593.19,3.72,0000 0000 0000 0000 000000
2018-05-30 00:19:49,0.00,0.03,0.00,23.41,27.25,30.35,13.86,46.64,1012.74,2027.02,3421.00,3080.87,3552.00,600.03,592.95,3.77,0000 0000 0000 0000 000000
2018-05-30 00:24:50,0.01,0.03,0.00,23.42,27.25,30.40,13.87,46.73,1012.77,2027.01,3421.00,3080.37,3552.00,600.10,592.92,3.82,0000 0000 0000 0000 000000
2018-05-30 00:29:51,0.00,0.03,0.00,23.42,27.25,30.38,13.97,46.73,1012.80,2027.04,3420.96,3080.33,3551.98,600.13,593.07,3.87,0000 0000 0000 0000 000000
2018-05-30 00:34:52,0.00,0.03,0.00,23.42,27.25,30.38,13.94,46.73,1012.82,2027.03,3420.88,3080.14,3551.96,600.22,593.20,3.92,0000 0000 0000 0000 000000
2018-05-30 00:39:53,0.01,0.03,0.00,23.45,27.25,30.39,13.83,46.73,1012.81,2027.02,3420.59,3080.07,3551.88,599.86,592.93,3.97,0000 0000 0000 0000 000000
2018-05-30 00:44:55,0.01,0.03,0.00,23.45,27.25,30.39,13.84,46.66,1013.02,2027.05,3420.05,3080.01,3551.44,599.75,592.60,4.02,0000 0000 0000 0000 000000
2018-05-30 00:49:56,0.00,0.03,0.00,23.45,27.25,30.38,13.84,46.68,1013.12,2027.03,3420.01,3080.00,3551.04,599.94,593.04,4.07,0000 0000 0000 0000 000000
2018-05-30 00:54:57,0.00,0.03,0.00,23.46,27.25,30.39,13.87,46.72,1013.16,2027.02,3420.00,3080.00,3551.01,599.84,593.03,4.12,0000 0000 0000 0000 000000
2018-05-30 00:59:58,0.00,0.03,0.00,23.47,27.26,30.39,13.85,46.62,1013.18,2027.03,3420.00,3080.00,3551.00,599.97,593.10,4.17,0000 0000 0000 0000 000000
2018-05-30 01:04:59,0.00,0.03,0.00,23.50,27.27,30.36,13.87,46.75,1013.20,2027.02,3419.98,3080.00,3550.99,600.01,593.02,4.22,0000 0000 0000 0000 000000
2018-05-30 01:10:00,0.00,0.03,0.00,23.51,27.27,30.40,13.93,46.75,1013.20,2027.01,3419.96,3079.99,3550.95,600.08,593.13,4.27,0000 0000 0000 0000 000000
2018-05-30 01:15:01,0.01,0.03,0.00,23.52,27.27,30.38,13.89,46.63,1013.20,2027.01,3419.59,3079.96,3550.92,599.94,592.89,4.32,0000 0000 0000 0000 000000
2018-05-30 01:20:03,0.00,0.03,0.00,23.52,27.27,30.40,13.89,46.66,1013.21,2027.02,3419.43,3079.96,3550.68,600.04,593.00,4.37,0000 0000 0000 0000 000000
2018-05-30 01:25:04,0.02,0.03,0.00,23.54,27.29,30.38,13.89,46.69,1013.21,2027.00,3419.14,3079.63,3550.13,599.94,592.89,4.42,0000 0000 0000 0000 000000
2018-05-30 01:30:05,0.00,0.03,0.00,23.55,27.30,30.42,13.84,46.65,1013.20,2027.00,3419.03,3079.58,3550.02,600.13,593.11,4.47,0000 0000 0000 0000 000000
2018-05-30 01:35:07,0.01,0.03,0.00,23.56,27.30,30.42,13.90,46.75,1013.20,2027.00,3419.00,3079.33,3550.02,599.92,592.81,4.52,0000 0000 0000 0000 000000
2018-05-30 01:40:08,0.00,0.03,0.00,23.57,27.30,30.44,13.87,46.69,1013.20,2027.00,3419.00,3079.03,3550.00,599.97,592.65,4.57,0000 0000 0000 0000 000000
2018-05-30 01:45:09,0.00,0.03,0.00,23.60,27.32,30.43,13.85,46.64,1013.20,2027.00,3418.99,3079.03,3550.00,599.97,592.85,4.62,0000 0000 0000 0000 000000
2018-05-30 01:50:10,0.00,0.03,0.00,23.60,27.32,30.45,13.94,46.74,1013.20,2027.00,3418.96,3079.02,3549.98,600.05,592.75,4.67,0000 0000 0000 0000 000000
2018-05-30 01:55:12,0.01,0.03,0.00,23.61,27.32,30.46,13.92,46.81,1013.21,2027.00,3418.68,3079.00,3549.91,600.11,592.93,4.72,0000 0000 0000 0000 000000
2018-05-30 02:00:13,0.01,0.03,0.00,23.62,27.34,30.47,13.93,46.74,1013.21,2027.00,3418.17,3079.00,3549.40,600.01,592.87,4.77,0000 0000 0000 0000 000000
2018-05-30 02:05:15,0.00,0.03,0.00,23.64,27.35,30.48,13.91,46.83,1013.21,2027.00,3418.01,3078.98,3549.03,600.11,592.87,4.82,0000 0000 0000 0000 000000
2018-05-30 02:10:16,0.00,0.03,0.00,23.65,27.35,30.47,13.80,46.72,1013.22,2026.99,3418.00,3078.93,3549.01,599.88,592.70,4.87,0000 0000 0000 0000 000000
2018-05-30 02:15:17,0.02,0.03,0.00,23.67,27.36,30.49,13.97,46.71,1013.29,2026.99,3417.78,3078.45,3548.99,600.41,593.10,4.93,0000 0000 0000 0000 000000
2018-05-30 02:20:19,0.00,0.03,0.00,23.67,27.37,30.48,13.86,46.70,1013.30,2026.98,3417.57,3078.07,3548.91,599.68,592.43,4.98,0000 0000 0000 0000 000000
2018-05-30 02:25:20,0.02,0.04,0.00,23.70,27.37,30.50,13.91,46.77,1013.32,2026.97,3417.15,3078.03,3548.34,600.08,592.81,5.03,0000 0000 0000 0000 000000
2018-05-30 02:30:21,0.00,0.04,0.00,23.72,27.38,30.48,13.79,46.73,1013.47,2026.97,3417.02,3078.01,3548.03,600.02,592.80,5.08,0000 0000 0000 0000 000000
2018-05-30 02:35:23,-0.00,0.04,0.00,23.72,27.40,30.52,13.92,46.68,1013.63,2026.96,3417.00,3078.00,3548.00,600.31,593.09,5.13,0000 0000 0000 0000 000000
2018-05-30 02:40:24,0.01,0.04,0.00,23.73,27.40,30.51,13.90,46.73,1013.66,2026.93,3416.86,3077.97,3547.99,599.83,592.64,5.18,0000 0000 0000 0000 000000
2018-05-30 02:45:25,0.01,0.04,0.00,23.74,27.41,30.55,13.92,46.77,1013.68,2026.94,3416.44,3077.95,3547.91,599.96,592.84,5.23,0000 0000 0000 0000 000000
2018-05-30 02:50:26,0.02,0.04,0.00,23.75,27.42,30.54,13.80,46.73,1013.69,2026.90,3416.04,3077.69,3547.36,599.52,592.36,5.28,0000 0000 0000 0000 000000
2018-05-30 02:55:28,0.01,0.04,0.00,23.76,27.42,30.59,13.97,46.72,1013.69,2026.84,3415.99,3077.15,3547.03,600.15,592.94,5.33,0000 0000 0000 0000 000000
2018-05-30 03:00:29,0.00,0.04,0.00,23.77,27.44,30.59,13.90,46.60,1013.69,2026.87,3415.82,3077.02,3547.00,600.11,592.69,5.38,0000 0000 0000 0000 000000
2018-05-30 03:05:30,0.01,0.04,0.00,23.79,27.45,30.57,13.84,46.58,1013.70,2026.80,3415.13,3077.00,3546.97,600.10,592.88,5.43,0000 0000 0000 0000 000000
2018-05-30 03:10:32,-0.03,0.04,0.00,23.80,27.46,30.58,13.85,46.60,1013.69,2026.61,3415.00,3076.98,3546.49,600.03,592.76,5.48,0000 0000 0000 0000 000000
2018-05-30 03:15:33,-0.02,0.04,0.00,23.81,27.47,30.59,13.91,46.60,1013.69,2026.16,3414.99,3076.92,3546.04,599.92,592.68,5.53,0000 0000 0000 0000 000000
2018-05-30 03:20:34,0.00,0.04,0.00,23.82,27.47,30.62,13.83,46.59,1013.69,2026.11,3414.97,3076.68,3546.01,599.86,592.65,5.58,0000 0000 0000 0000 000000
2018-05-30 03:25:36,0.02,0.04,0.00,23.82,27.50,30.62,13.90,46.60,1013.71,2026.10,3414.57,3076.21,3545.99,599.82,592.57,5.63,0000 0000 0000 0000 000000
2018-05-30 03:30:37,0.01,0.04,0.00,23.84,27.50,30.61,13.87,46.52,1013.71,2026.12,3414.08,3076.07,3545.99,599.98,592.76,5.68,0000 0000 0000 0000 000000
2018-05-30 03:35:38,-0.00,0.04,0.00,23.85,27.51,30.61,13.91,46.63,1013.73,2026.07,3414.00,3076.01,3545.87,600.00,592.57,5.73,0000 0000 0000 0000 000000
2018-05-30 03:40:39,0.00,0.04,0.00,23.85,27.52,30.64,13.98,46.77,1013.77,2026.02,3414.00,3076.00,3545.21,600.38,593.07,5.78,0000 0000 0000 0000 000000
2018-05-30 03:45:40,0.00,0.04,0.00,23.87,27.53,30.63,13.85,46.64,1013.83,2026.02,3413.96,3076.00,3545.04,599.99,592.71,5.83,0000 0000 0000 0000 000000
2018-05-30 03:50:42,0.01,0.04,0.00,23.88,27.55,30.67,13.83,46.67,1013.78,2026.02,3413.61,3075.98,3545.00,599.91,592.47,5.88,0000 0000 0000 0000 000000
2018-05-30 03:55:43,0.00,0.04,0.00,23.88,27.55,30.67,13.89,46.71,1013.74,2026.01,3413.30,3075.96,3545.00,600.01,592.69,5.93,0000 0000 0000 0000 000000
2018-05-30 04:00:44,0.01,0.04,0.00,23.89,27.56,30.70,13.80,46.61,1013.78,2026.00,3413.10,3075.76,3545.00,599.93,592.36,5.98,0000 0000 0000 0000 000000
2018-05-30 04:05:45,0.01,0.04,0.00,23.90,27.57,30.71,13.78,46.65,1013.93,2026.01,3413.01,3075.33,3544.93,599.82,592.45,6.03,0000 0000 0000 0000 000000
2018-05-30 04:10:46,0.00,0.04,0.00,23.90,27.57,30.70,13.91,46.70,1013.98,2026.00,3413.00,3075.08,3544.67,600.12,592.83,6.08,0000 0000 0000 0000 000000
2018-05-30 04:15:48,0.01,0.04,0.00,23.90,27.59,30.72,13.81,46.61,1014.13,2026.00,3412.92,3075.02,3544.16,600.07,592.83,6.13,0000 0000 0000 0000 000000
2018-05-30 04:20:49,0.01,0.04,0.00,23.91,27.60,30.73,13.90,46.60,1014.16,2026.00,3412.48,3075.00,3544.01,600.06,592.86,6.18,0000 0000 0000 0000 000000
2018-05-30 04:25:50,0.00,0.04,0.00,23.92,27.60,30.70,13.88,46.50,1014.16,2026.00,3412.05,3074.99,3544.00,600.17,592.87,6.23,0000 0000 0000 0000 000000
2018-05-30 04:30:51,0.00,0.04,0.00,23.92,27.61,30.74,13.89,46.52,1014.16,2026.00,3412.00,3074.96,3544.00,600.06,592.84,6.28,0000 0000 0000 0000 000000
2018-05-30 04:35:53,0.01,0.04,0.00,23.92,27.62,30.73,13.97,46.54,1014.16,2026.00,3411.99,3074.71,3543.90,600.17,592.97,6.33,0000 0000 0000 0000 000000
2018-05-30 04:40:54,0.01,0.04,0.00,23.92,27.62,30.73,13.82,46.56,1014.17,2026.00,3411.98,3074.54,3543.39,599.86,592.69,6.38,0000 0000 0000 0000 000000
2018-05-30 04:45:55,0.01,0.04,0.00,23.93,27.63,30.76,13.86,46.63,1014.16,2025.98,3411.97,3074.47,3543.08,600.16,592.85,6.43,0000 0000 0000 0000 000000
2018-05-30 04:50:56,0.01,0.04,0.00,23.93,27.65,30.77,13.90,46.72,1014.17,2025.98,3411.88,3074.25,3543.03,600.16,592.93,6.48,0000 0000 0000 0000 000000
2018-05-30 04:55:57,0.01,0.04,0.00,23.95,27.65,30.77,13.88,46.61,1014.17,2025.97,3411.43,3074.05,3543.01,599.96,592.63,6.53,0000 0000 0000 0000 000000
2018-05-30 05:00:59,0.00,0.04,0.00,23.95,27.66,30.78,13.85,46.60,1014.17,2025.99,3411.05,3074.02,3543.00,600.03,592.59,6.58,0000 0000 0000 0000 000000
2018-05-30 05:06:00,-0.00,0.04,0.00,23.95,27.67,30.80,13.92,46.72,1014.17,2025.93,3411.00,3074.00,3542.96,600.08,592.80,6.63,0000 0000 0000 0000 000000
2018-05-30 05:11:01,-0.00,0.04,0.00,23.96,27.67,30.83,13.90,46.62,1014.17,2025.86,3410.99,3074.00,3542.69,600.24,592.88,6.68,0000 0000 0000 0000 000000
2018-05-30 05:16:03,0.01,0.04,0.00,23.95,27.67,30.80,13.91,46.66,1014.17,2025.83,3410.92,3073.98,3542.29,600.21,592.94,6.73,0000 0000 0000 0000 000000
2018-05-30 05:21:04,0.01,0.05,0.00,23.97,27.69,30.81,13.81,46.63,1014.17,2025.83,3410.26,3073.85,3542.04,599.91,592.55,6.78,0000 0000 0000 0000 000000
2018-05-30 05:26:06,0.01,0.05,0.00,23.97,27.70,30.80,13.88,46.63,1014.17,2025.96,3410.08,3073.76,3542.00,600.23,592.64,6.83,0000 0000 0000 0000 000000
2018-05-30 05:31:07,0.00,0.05,0.00,23.97,27.70,30.84,13.80,46.58,1014.17,2025.97,3410.05,3073.89,3542.02,600.02,592.73,6.88,0000 0000 0000 0000 000000
2018-05-30 05:36:08,0.00,0.05,0.00,23.97,27.70,30.84,13.83,46.57,1014.17,2025.93,3410.02,3073.56,3542.00,599.83,592.45,6.93,0000 0000 0000 0000 000000
2018-05-30 05:41:10,-0.00,0.05,0.00,23.97,27.71,30.86,13.89,46.63,1014.18,2025.85,3410.00,3073.35,3541.99,600.41,592.94,6.98,0000 0000 0000 0000 000000
2018-05-30 05:46:11,0.01,0.05,0.00,23.97,27.72,30.85,13.87,46.60,1014.18,2025.83,3410.00,3073.07,3541.98,600.01,592.74,7.03,0000 0000 0000 0000 000000
2018-05-30 05:51:12,-0.01,0.05,0.00,23.97,27.72,30.85,13.83,46.63,1014.18,2025.67,3410.00,3073.03,3541.88,600.14,592.75,7.08,0000 0000 0000 0000 000000
2018-05-30 05:56:13,-0.03,0.04,0.00,23.97,27.72,30.88,13.87,46.56,1014.18,2025.28,3409.93,3073.01,3541.43,600.18,592.88,7.13,0000 0000 0000 0000 000000
2018-05-30 06:01:14,0.01,0.04,0.00,23.97,27.73,30.89,13.74,46.59,1014.18,2025.24,3409.65,3073.00,3541.09,599.69,592.39,7.18,0000 0000 0000 0000 000000
2018-05-30 06:06:16,0.00,0.05,0.00,23.97,27.75,30.87,13.79,46.57,1014.18,2025.22,3409.17,3073.00,3541.04,599.98,592.43,7.23,0000 0000 0000 0000 000000
2018-05-30 06:11:17,0.01,0.05,0.00,23.98,27.75,30.90,13.86,46.52,1014.18,2025.28,3409.01,3072.97,3541.00,599.83,592.50,7.29,0000 0000 0000 0000 000000
2018-05-30 06:16:18,0.00,0.05,0.00,23.98,27.75,30.88,13.76,46.52,1014.18,2025.24,3409.00,3072.95,3541.00,599.60,592.40,7.34,0000 0000 0000 0000 000000
2018-05-30 06:21:19,-0.01,0.05,0.00,24.00,27.75,30.90,13.95,46.62,1014.18,2025.08,3409.00,3072.90,3540.97,600.27,592.99,7.39,0000 0000 0000 0000 000000
2018-05-30 06:26:21,0.01,0.05,0.00,23.99,27.76,30.89,13.82,46.57,1014.18,2025.08,3408.93,3072.50,3540.93,599.77,592.40,7.44,0000 0000 0000 0000 000000
2018-05-30 06:31:22,0.02,0.05,0.00,24.00,27.77,30.90,13.94,46.63,1014.18,2025.05,3408.25,3072.05,3540.22,600.11,592.77,7.49,0000 0000 0000 0000 000000
2018-05-30 06:36:23,0.00,0.05,0.00,24.00,27.77,30.90,13.90,46.62,1014.17,2025.02,3408.10,3072.02,3540.05,600.27,592.81,7.54,0000 0000 0000 0000 000000
2018-05-30 06:41:24,-0.00,0.05,0.00,24.00,27.77,30.93,13.91,46.67,1014.17,2025.01,3408.02,3072.00,3540.00,600.19,592.79,7.59,0000 0000 0000 0000 000000
2018-05-30 06:46:26,0.00,0.05,0.00,24.00,27.77,30.91,13.88,46.61,1014.17,2025.02,3408.00,3072.00,3540.00,600.11,592.89,7.64,0000 0000 0000 0000 000000
2018-05-30 06:51:27,0.00,0.05,0.00,24.00,27.79,30.91,13.81,46.59,1014.16,2025.00,3407.99,3072.00,3539.98,600.01,592.59,7.69,0000 0000 0000 0000 000000
2018-05-30 06:56:28,0.00,0.05,0.00,23.99,27.80,30.90,13.81,46.58,1014.17,2025.00,3407.98,3071.99,3539.97,599.91,592.62,7.74,0000 0000 0000 0000 000000
2018-05-30 07:01:29,0.00,0.05,0.00,24.00,27.80,30.92,13.96,46.63,1014.17,2025.00,3407.97,3071.98,3539.94,600.29,592.87,7.79,0000 0000 0000 0000 000000
2018-05-30 07:06:31,0.01,0.05,0.00,23.99,27.80,30.93,13.87,46.67,1014.17,2025.00,3407.81,3071.97,3539.66,599.94,592.44,7.84,0000 0000 0000 0000 000000
2018-05-30 07:11:32,0.01,0.05,0.00,23.99,27.80,30.94,13.84,46.60,1014.17,2025.00,3407.51,3071.93,3539.29,599.82,592.44,7.89,0000 0000 0000 0000 000000
2018-05-30 07:16:33,0.02,0.05,0.00,23.99,27.80,30.93,13.98,46.67,1014.16,2025.00,3407.14,3071.60,3539.09,600.24,592.82,7.94,0000 0000 0000 0000 000000
2018-05-30 07:21:34,0.01,0.05,0.00,23.98,27.80,30.95,14.02,46.67,1014.17,2025.00,3407.01,3071.14,3539.01,600.27,593.01,7.99,0000 0000 0000 0000 000000
2018-05-30 07:26:35,0.00,0.05,0.00,23.99,27.80,30.93,13.87,46.63,1014.17,2025.00,3407.00,3071.06,3539.00,600.31,592.94,8.04,0000 0000 0000 0000 000000
2018-05-30 07:31:36,0.00,0.05,0.00,24.00,27.81,30.93,13.83,46.58,1014.17,2025.00,3406.99,3071.02,3539.00,599.78,592.44,8.09,0000 0000 0000 0000 000000
2018-05-30 07:36:37,0.00,0.05,0.00,24.00,27.82,30.93,13.80,46.53,1014.17,2025.00,3406.92,3071.01,3538.98,599.75,592.18,8.14,0000 0000 0000 0000 000000
2018-05-30 07:41:39,0.00,0.05,0.00,24.00,27.82,30.94,13.91,46.58,1014.17,2025.00,3406.83,3071.00,3538.99,600.15,592.71,8.19,0000 0000 0000 0000 000000
2018-05-30 07:46:40,0.01,0.05,0.00,24.00,27.82,30.91,13.98,46.57,1014.17,2025.00,3406.22,3071.00,3538.90,600.08,592.72,8.24,0000 0000 0000 0000 000000
2018-05-30 07:51:41,0.01,0.05,0.00,24.00,27.82,30.94,13.81,46.57,1014.17,2025.00,3406.04,3071.00,3538.50,600.31,592.86,8.29,0000 0000 0000 0000 000000
2018-05-30 07:56:43,0.00,0.05,0.00,24.00,27.82,30.94,13.82,46.51,1014.17,2025.00,3406.01,3071.00,3538.09,599.91,592.42,8.34,0000 0000 0000 0000 000000
2018-05-30 08:01:44,0.00,0.05,0.00,24.00,27.82,30.93,13.85,46.52,1014.17,2025.00,3406.00,3070.97,3538.02,599.87,592.47,8.39,0000 0000 0000 0000 000000
2018-05-30 08:06:45,0.00,0.05,0.00,24.01,27.82,30.93,13.78,46.53,1014.17,2025.00,3406.00,3070.96,3538.00,600.06,592.54,8.44,0000 0000 0000 0000 000000
2018-05-30 08:11:46,0.00,0.05,0.00,24.01,27.82,30.97,13.81,46.58,1014.17,2024.99,3406.00,3070.95,3538.00,599.84,592.48,8.49,0000 0000 0000 0000 000000
2018-05-30 08:16:48,0.00,0.05,0.00,24.02,27.82,30.98,13.85,46.62,1014.17,2024.97,3406.00,3070.90,3537.99,600.10,592.71,8.54,0000 0000 0000 0000 000000
2018-05-30 08:21:49,0.00,0.05,0.00,24.00,27.83,30.96,13.92,46.55,1014.19,2024.98,3405.99,3070.90,3537.98,600.25,592.86,8.59,0000 0000 0000 0000 000000
2018-05-30 08:26:50,0.00,0.05,0.00,24.00,27.84,30.97,13.88,46.54,1014.19,2024.99,3405.97,3070.68,3537.98,600.19,592.78,8.64,0000 0000 0000 0000 000000
2018-05-30 08:31:51,0.01,0.05,0.00,23.99,27.85,30.95,13.88,46.57,1014.19,2024.97,3405.88,3070.33,3537.89,600.13,592.62,8.69,0000 0000 0000 0000 000000
2018-05-30 08:36:53,0.01,0.05,0.00,23.98,27.85,30.98,13.89,46.52,1014.20,2024.97,3405.58,3070.10,3537.61,600.15,592.77,8.74,0000 0000 0000 0000 000000
2018-05-30 08:41:54,0.01,0.05,0.00,23.98,27.85,30.97,13.86,46.52,1014.21,2024.97,3405.11,3070.04,3537.18,600.16,592.64,8.79,0000 0000 0000 0000 000000
2018-05-30 08:46:55,0.00,0.05,0.00,23.97,27.85,30.96,13.92,46.48,1014.19,2024.96,3405.03,3070.03,3537.06,599.99,592.63,8.84,0000 0000 0000 0000 000000
2018-05-30 08:51:56,-0.00,0.05,0.00,23.97,27.85,30.98,13.93,46.48,1014.18,2024.93,3405.01,3070.00,3537.00,600.25,592.88,8.89,0000 0000 0000 0000 000000
2018-05-30 08:56:58,0.00,0.05,0.00,23.97,27.85,30.98,13.78,46.53,1014.18,2024.95,3405.00,3070.00,3537.00,599.70,592.38,8.94,0000 0000 0000 0000 000000
2018-05-30 09:01:59,0.00,0.05,0.00,23.95,27.85,30.97,13.82,46.60,1014.18,2024.95,3404.99,3070.00,3537.00,600.01,592.72,8.99,0000 0000 0000 0000 000000
2018-05-30 09:07:00,-0.00,0.05,0.00,23.95,27.85,31.00,13.89,46.62,1014.18,2024.96,3404.98,3070.00,3537.00,600.27,592.82,9.04,0000 0000 0000 0000 000000
2018-05-30 09:12:02,0.00,0.05,0.00,23.95,27.85,30.96,13.83,46.58,1014.18,2024.97,3404.87,3070.00,3536.99,600.02,592.73,9.09,0000 0000 0000 0000 000000
2018-05-30 09:17:03,0.01,0.05,0.00,23.96,27.85,30.93,13.89,46.60,1014.18,2024.96,3404.36,3069.98,3536.97,600.21,592.98,9.14,0000 0000 0000 0000 000000
2018-05-30 09:22:04,0.01,0.06,0.00,23.95,27.85,30.97,13.93,46.51,1014.18,2024.95,3404.08,3069.95,3536.95,600.40,592.96,9.19,0000 0000 0000 0000 000000
2018-05-30 09:27:05,0.00,0.06,0.00,23.95,27.85,30.96,13.86,46.42,1014.18,2024.99,3404.04,3069.97,3536.96,600.24,592.97,9.24,0000 0000 0000 0000 000000
2018-05-30 09:32:07,0.00,0.06,0.00,23.94,27.85,30.96,13.80,46.52,1014.18,2024.99,3404.03,3069.93,3536.94,600.02,592.79,9.29,0000 0000 0000 0000 000000
2018-05-30 09:37:08,0.01,0.06,0.00,23.95,27.84,30.94,13.89,46.45,1014.18,2024.99,3404.01,3069.83,3536.82,599.99,592.67,9.34,0000 0000 0000 0000 000000
2018-05-30 09:42:09,0.02,0.06,0.00,23.95,27.83,30.96,13.84,46.47,1014.18,2024.99,3404.00,3069.39,3536.35,600.06,592.79,9.39,0000 0000 0000 0000 000000
2018-05-30 09:47:10,-0.00,0.06,0.00,23.94,27.83,30.96,13.89,46.50,1014.18,2024.99,3404.00,3069.28,3536.20,600.08,592.81,9.44,0000 0000 0000 0000 000000
2018-05-30 09:52:11,-0.00,0.06,0.00,23.94,27.82,30.95,13.80,46.52,1014.18,2024.99,3403.99,3069.29,3536.13,599.94,592.73,9.49,0000 0000 0000 0000 000000
2018-05-30 09:57:13,0.00,0.06,0.00,23.94,27.82,30.94,13.86,46.44,1014.17,2024.99,3403.97,3069.21,3536.10,600.15,592.81,9.54,0000 0000 0000 0000 000000
2018-05-30 10:02:14,0.00,0.06,0.00,23.92,27.82,30.94,13.81,46.44,1014.17,2024.99,3403.90,3069.07,3536.02,599.51,592.33,9.60,0000 0000 0000 0000 000000
2018-05-30 10:07:15,0.01,0.06,0.00,23.92,27.82,30.93,13.89,46.41,1014.17,2024.99,3403.51,3069.02,3536.01,599.96,592.65,9.65,0000 0000 0000 0000 000000
2018-05-30 10:12:16,0.00,0.06,0.00,23.92,27.82,30.92,13.88,46.38,1014.17,2024.99,3403.27,3069.03,3536.01,600.06,592.86,9.70,0000 0000 0000 0000 000000
2018-05-30 10:17:17,0.00,0.06,0.00,23.91,27.82,30.94,13.95,46.52,1014.15,2024.99,3403.16,3069.04,3536.01,600.19,592.90,9.75,0000 0000 0000 0000 000000
2018-05-30 10:22:18,0.00,0.06,0.00,23.91,27.82,30.94,13.82,46.48,1014.14,2025.00,3403.04,3069.01,3536.00,599.85,592.63,9.80,0000 0000 0000 0000 000000
2018-05-30 10:27:19,0.00,0.06,0.00,23.92,27.81,30.94,13.75,46.51,1014.14,2025.00,3403.00,3069.00,3536.00,599.59,592.33,9.85,0000 0000 0000 0000 000000
2018-05-30 10:32:21,0.00,0.06,0.00,23.90,27.80,30.94,13.80,46.48,1014.14,2025.00,3403.00,3069.00,3536.00,599.96,592.64,9.90,0000 0000 0000 0000 000000
2018-05-30 10:37:22,0.00,0.06,0.00,23.90,27.80,30.94,13.86,46.48,1014.12,2025.00,3403.00,3069.00,3536.00,599.92,592.68,9.95,0000 0000 0000 0000 000000
2018-05-30 10:42:23,0.00,0.06,0.00,23.90,27.80,30.94,13.88,46.58,1013.95,2025.00,3403.01,3069.00,3535.99,600.00,592.58,10.00,0000 0000 0000 0000 000000
2018-05-30 10:47:24,0.00,0.06,0.00,23.88,27.80,30.92,13.95,46.52,1013.85,2025.00,3403.00,3069.00,3535.99,599.92,592.62,10.05,0000 0000 0000 0000 000000
2018-05-30 10:52:26,0.00,0.06,0.00,23.88,27.80,30.90,13.80,46.52,1013.82,2025.02,3403.00,3069.00,3535.98,599.90,592.49,10.10,0000 0000 0000 0000 000000
2018-05-30 10:57:27,0.00,0.06,0.00,23.89,27.80,30.91,13.93,46.55,1013.78,2025.02,3403.00,3069.00,3535.97,600.18,592.78,10.15,0000 0000 0000 0000 000000
2018-05-30 11:02:28,0.00,0.06,0.00,23.88,27.80,30.91,13.88,46.56,1013.77,2025.02,3402.97,3069.00,3535.93,600.05,592.66,10.20,0000 0000 0000 0000 000000
2018-05-30 11:07:30,0.00,0.06,0.00,23.87,27.79,30.91,13.89,46.52,1013.75,2025.01,3402.91,3068.99,3535.73,599.72,592.34,10.25,0000 0000 0000 0000 000000
2018-05-30 11:12:31,0.01,0.06,0.00,23.87,27.78,30.90,13.89,46.53,1013.80,2025.01,3402.57,3068.97,3535.36,600.13,592.78,10.30,0000 0000 0000 0000 000000
2018-05-30 11:17:32,0.01,0.06,0.00,23.87,27.77,30.90,13.83,46.49,1013.81,2025.04,3402.15,3068.92,3535.13,599.91,592.60,10.35,0000 0000 0000 0000 000000
2018-05-30 11:22:34,0.01,0.06,0.00,23.87,27.77,30.91,13.90,46.49,1013.87,2025.04,3402.01,3068.51,3535.01,600.23,592.94,10.40,0000 0000 0000 0000 000000
2018-05-30 11:27:35,0.00,0.06,0.00,23.87,27.77,30.89,13.78,46.45,1013.81,2025.03,3401.99,3068.05,3535.00,599.81,592.47,10.45,0000 0000 0000 0000 000000
2018-05-30 11:32:36,0.00,0.06,0.00,23.87,27.77,30.88,13.92,46.46,1013.79,2025.10,3401.98,3068.03,3535.00,600.09,592.89,10.50,0000 0000 0000 0000 000000
2018-05-30 11:37:37,0.00,0.06,0.00,23.87,27.77,30.90,13.90,46.42,1013.77,2025.17,3401.89,3068.01,3535.00,600.34,593.03,10.55,0000 0000 0000 0000 000000
2018-05-30 11:42:39,0.03,0.06,0.00,23.86,27.77,30.87,13.87,46.46,1013.73,2025.40,3401.78,3068.00,3534.99,599.95,592.58,10.60,0000 0000 0000 0000 000000
2018-05-30 11:47:40,0.02,0.06,0.00,23.85,27.77,30.88,13.95,46.52,1013.72,2025.53,3401.43,3068.00,3534.97,600.25,592.93,10.65,0000 0000 0000 0000 000000
2018-05-30 11:52:41,0.00,0.06,0.00,23.86,27.76,30.89,13.94,46.48,1013.71,2025.59,3401.14,3068.00,3534.91,599.97,592.65,10.70,0000 0000 0000 0000 000000
2018-05-30 11:57:43,0.00,0.06,0.00,23.86,27.75,30.87,13.92,46.51,1013.70,2025.44,3401.02,3067.99,3534.41,599.89,592.45,10.75,0000 0000 0000 0000 000000
2018-05-30 12:02:44,-0.00,0.06,0.00,23.84,27.75,30.86,13.86,46.52,1013.69,2025.41,3401.00,3067.98,3534.08,599.92,592.52,10.80,0000 0000 0000 0000 000000
2018-05-30 12:07:45,0.00,0.06,0.00,23.85,27.75,30.86,13.84,46.51,1013.69,2025.43,3401.00,3067.96,3534.02,600.01,592.50,10.85,0000 0000 0000 0000 000000
2018-05-30 12:12:46,0.00,0.06,0.00,23.84,27.75,30.86,13.93,46.62,1013.70,2025.45,3401.00,3067.96,3534.00,599.90,592.63,10.90,0000 0000 0000 0000 000000
2018-05-30 12:17:47,0.02,0.07,0.00,23.83,27.75,30.85,13.89,46.52,1013.70,2025.62,3400.99,3067.94,3534.00,600.07,592.70,10.95,0000 0000 0000 0000 000000
2018-05-30 12:22:48,0.01,0.07,0.00,23.83,27.75,30.87,13.87,46.53,1013.69,2025.74,3400.99,3067.94,3534.00,599.86,592.41,11.00,0000 0000 0000 0000 000000
2018-05-30 12:27:49,0.02,0.07,0.00,23.81,27.74,30.87,13.84,46.52,1013.69,2025.92,3400.94,3067.83,3534.00,599.92,592.54,11.05,0000 0000 0000 0000 000000
2018-05-30 12:32:50,0.01,0.07,0.00,23.81,27.74,30.86,14.00,46.58,1013.69,2025.97,3400.87,3067.71,3534.00,600.20,592.90,11.10,0000 0000 0000 0000 000000
2018-05-30 12:37:52,0.00,0.07,0.00,23.81,27.73,30.87,13.81,46.49,1013.69,2025.97,3400.51,3067.42,3533.98,599.87,592.61,11.15,0000 0000 0000 0000 000000
2018-05-30 12:42:53,0.01,0.07,0.00,23.81,27.73,30.86,13.87,46.55,1013.68,2025.95,3400.20,3067.11,3533.97,599.97,592.61,11.20,0000 0000 0000 0000 000000
2018-05-30 12:47:55,0.00,0.07,0.00,23.81,27.72,30.85,13.82,46.57,1013.67,2025.97,3400.08,3067.04,3533.89,599.88,592.66,11.25,0000 0000 0000 0000 000000
2018-05-30 12:52:57,0.00,0.07,0.00,23.80,27.72,30.85,13.89,46.56,1013.64,2025.95,3400.03,3067.03,3533.64,599.77,592.47,11.30,0000 0000 0000 0000 000000
2018-05-30 12:57:58,0.00,0.07,0.00,23.79,27.72,30.82,13.85,46.61,1013.64,2025.95,3400.01,3067.01,3533.22,600.07,592.79,11.35,0000 0000 0000 0000 000000
2018-05-30 13:02:59,-0.01,0.07,0.00,23.78,27.72,30.85,13.84,46.54,1013.52,2025.88,3400.00,3066.99,3533.03,600.00,592.70,11.40,0000 0000 0000 0000 000000